Wind_Speed
9 10 10 12 13 12 10 10 10 10 10 10 10 9 8 8 7 6 5 7 7 7 10 9 7 8 9 7 5 5 9 7 6 9 8 6 5 4 4 4 6 8 9 10 11 13 11 10 10 8 9 11 11 9 8 9 9 8 7 4 4 2 1 3 6 8 8 8 8 8 9 8 8 8 8 8 8 9 9 11 12 12 13 13 13
9 9 10 11 12 11 9 9 9 9 9 10 11 9 8 8 7 6 6 6 7 8 9 10 9 9 9 7 4 3 6 7 7 7 7 6 5 4 4 3 5 7 9 8 8 12 13 11 11 8 6 9 11 10 9 9 9 8 7 6 5 3 2 2 4 7 8 7 7 7 8 8 7 7 7 7 8 8 9 10 11 11 12 12 13
9 9 9 10 10 10 9 8 8 9 9 9 10 9 8 9 7 6 6 7 9 8 5 8 9 9 10 8 6 4 4 8 9 9 8 6 5 5 5 4 5 7 8 8 7 11 13 11 11 9 6 8 9 9 9 9 11 10 7 7 7 5 3 2 3 5 7 7 7 7 7 7 7 7 7 7 7 7 8 9 10 11 11 12 12
10 10 10 10 10 10 9 8 7 9 9 8 9 9 8 8 7 7 9 10 9 7 4 5 7 7 9 8 8 9 9 10 10 10 10 9 9 8 6 6 6 6 7 8 8 9 11 11 11 9 6 8 9 7 7 8 11 12 9 8 9 8 5 4 2 2 5 7 7 7 7 6 6 6 6 6 6 7 7 8 9 10 10 10 11
11 11 10 10 10 9 8 9 8 8 8 8 9 9 7 6 6 9 11 11 9 8 6 5 7 6 5 5 7 8 10 13 13 12 12 10 11 11 8 8 7 7 7 7 8 9 10 10 12 10 6 8 10 7 6 5 8 11 11 10 10 11 8 6 5 3 4 7 7 7 6 6 6 5 5 6 5 6 6 7 7 8 9 9 10
11 9 9 10 9 9 8 9 9 8 9 10 11 10 6 5 7 9 11 10 9 9 7 5 6 5 3 5 8 4 3 8 12 11 14 13 12 12 11 11 9 8 7 7 8 8 10 10 11 11 7 8 10 8 7 5 6 8 9 10 10 12 11 8 8 5 4 6 6 7 6 6 6 5 5 5 5 5 5 6 6 7 7 8 9
10 8 9 11 11 9 8 9 9 9 10 11 13 10 7 7 8 8 8 7 5 5 5 6 3 4 3 3 6 4 3 2 3 2 8 13 14 15 13 13 12 9 8 8 8 8 10 10 10 11 9 8 10 9 9 7 6 6 7 9 10 12 12 10 9 6 5 5 5 6 7 7 6 6 5 4 4 4 4 5 5 5 5 6 7
8 8 9 10 10 9 8 8 9 9 9 10 13 12 8 8 8 7 6 3 3 2 6 9 4 4 4 1 3 6 1 3 3 3 3 4 9 16 17 15 13 12 10 8 8 8 9 10 10 11 10 9 9 9 10 9 8 6 6 8 10 11 12 11 11 9 7 6 4 6 8 8 7 6 6 5 4 4 4 4 4 3 4 5 6
7 7 8 9 9 9 8 8 9 9 8 9 13 14 10 9 8 7 6 5 5 4 6 9 7 4 5 4 1 3 1 2 3 1 1 2 3 7 17 18 15 13 12 10 8 9 9 10 10 11 11 10 10 10 10 10 9 7 5 7 9 10 12 12 12 10 9 8 5 5 7 8 8 7 6 5 4 4 4 4 4 3 4 4 5
8 8 9 10 10 10 9 9 10 9 8 8 11 14 12 10 9 8 7 7 7 6 6 6 6 5 4 5 6 4 3 1 0 1 2 1 7 4 6 15 18 15 12 11 10 10 10 10 11 11 12 11 11 11 10 11 10 9 7 7 8 8 9 11 12 11 10 9 7 5 4 6 8 8 7 6 5 4 4 3 4 4 4 4 4
9 7 7 8 8 8 7 8 9 8 8 7 9 13 12 11 9 9 8 8 8 7 7 5 5 5 3 4 6 4 4 2 2 2 3 2 4 6 5 5 15 16 14 13 11 11 11 12 12 12 13 12 12 12 11 11 11 11 10 10 8 7 6 8 11 12 11 10 9 8 6 5 6 7 7 6 5 4 4 4 4 4 4 4 4
9 7 6 5 2 2 4 6 7 7 8 7 7 10 11 12 10 9 9 9 9 9 7 6 6 6 3 3 4 3 4 5 4 3 3 2 3 6 5 2 4 7 12 15 15 14 13 13 14 14 14 13 13 13 12 12 12 12 12 12 11 9 7 6 8 11 12 11 10 10 8 6 5 5 5 5 5 4 3 3 4 4 4 4 5
7 6 4 4 4 2 2 4 6 7 7 7 7 8 9 10 9 9 9 9 10 9 8 6 5 5 3 2 2 3 4 7 7 6 4 3 3 5 7 6 3 1 4 7 9 12 14 17 18 17 17 15 14 14 14 13 13 13 13 14 14 12 11 9 8 8 9 10 10 11 11 9 7 5 5 4 4 4 3 3 3 4 4 4 5
7 5 4 4 4 3 2 2 2 4 5 4 6 8 8 8 8 9 11 9 8 8 8 7 5 6 5 2 1 3 4 6 9 10 10 8 7 7 8 8 6 4 2 2 2 1 7 13 16 19 20 18 17 17 16 16 15 14 14 15 16 15 14 13 11 9 8 9 10 11 13 12 9 7 7 6 5 5 4 4 3 4 4 4 5
9 8 7 6 5 5 4 4 3 1 3 4 4 6 7 8 8 10 11 8 7 7 7 7 6 6 5 2 1 1 2 4 5 8 9 12 13 10 9 8 7 7 6 5 5 3 1 4 7 11 15 17 19 19 19 19 18 16 15 15 16 16 16 15 15 13 11 10 10 11 13 12 10 9 8 8 8 7 6 5 5 5 5 5 5
12 10 9 8 6 5 5 5 5 3 1 3 5 5 5 7 8 8 7 7 7 7 7 7 9 7 3 1 1 2 1 2 3 3 4 7 10 10 9 8 6 6 6 5 6 6 4 3 3 4 7 11 14 17 19 21 22 20 17 16 16 16 17 17 16 16 15 13 12 12 13 13 11 10 10 9 9 8 8 7 6 6 6 6 6
14 13 11 11 10 7 6 7 8 7 5 5 5 4 4 4 6 7 7 8 7 6 6 7 9 8 3 3 2 1 1 2 1 2 3 5 6 7 7 6 4 4 4 4 5 7 6 6 7 7 7 7 11 13 15 17 22 25 22 20 18 17 17 17 17 17 17 16 15 14 14 14 12 11 10 10 10 9 9 9 8 8 8 8 8
12 12 12 13 12 9 8 9 10 11 9 8 8 8 9 8 6 5 6 8 8 6 6 5 7 9 6 5 3 1 2 2 1 1 2 4 5 6 5 5 5 4 4 4 5 6 6 6 7 10 10 9 10 11 11 11 15 20 23 23 22 19 18 18 18 19 18 17 17 16 15 15 14 13 12 11 10 9 9 9 9 9 9 9 9
12 11 11 12 12 11 9 11 13 15 13 13 12 10 10 10 11 10 7 6 7 7 7 6 5 6 7 6 4 2 2 2 2 1 0 2 4 5 4 5 6 7 7 7 6 5 5 5 5 7 9 9 11 11 9 10 12 15 17 19 21 22 22 20 20 20 20 19 18 17 17 16 16 15 14 13 12 11 10 10 10 10 10 10 10
13 11 10 10 11 15 14 14 14 13 13 14 14 13 12 11 11 12 11 8 7 7 8 8 7 6 5 6 5 4 3 2 2 2 2 1 2 3 4 4 6 8 9 9 8 7 6 5 5 6 6 7 9 9 9 11 13 15 15 14 16 19 22 23 22 21 22 21 20 19 18 17 17 17 16 16 15 14 14 13 12 12 12 12 12
13 11 10 9 9 14 17 16 14 12 11 12 12 12 13 13 12 12 13 12 9 9 10 9 9 8 6 5 6 6 4 1 1 1 2 2 2 3 3 4 6 8 9 11 9 8 8 7 7 6 6 6 7 8 9 10 13 16 16 15 13 14 18 21 22 23 23 23 22 22 20 19 19 19 19 18 17 17 17 16 16 15 15 14 14
12 12 11 10 9 11 15 16 14 12 12 13 13 12 12 12 12 11 12 13 12 11 11 11 12 12 10 8 7 7 4 2 3 2 1 2 2 2 4 5 5 5 4 8 8 7 8 8 9 9 8 7 7 9 10 10 11 14 16 16 15 14 16 17 19 22 25 26 26 24 23 21 20 20 20 20 19 18 18 18 18 18 18 17 16
12 11 11 11 11 11 13 15 14 12 12 14 13 12 12 12 12 11 10 11 11 12 12 11 12 13 13 13 13 11 8 6 6 8 5 2 1 2 5 7 5 7 7 3 7 8 7 7 8 10 11 10 8 7 8 9 10 11 13 14 15 14 14 15 17 19 22 25 28 28 25 23 22 22 21 21 21 20 19 19 19 19 19 18 17
12 11 11 12 12 12 13 13 12 12 12 12 11 10 11 11 11 11 9 9 9 11 12 12 11 13 14 13 13 11 10 9 8 8 7 6 5 3 6 8 4 7 10 7 5 8 9 10 11 10 9 9 9 8 7 8 9 9 10 12 13 13 12 12 14 15 15 18 22 24 24 23 23 23 22 21 21 20 21 21 20 20 19 19 19
11 11 12 13 12 10 11 11 11 12 12 10 9 9 9 10 11 11 10 9 9 10 11 11 11 13 13 12 12 11 10 9 7 7 7 8 10 7 7 8 5 6 8 8 8 8 8 9 10 12 12 10 10 11 9 7 7 8 9 9 10 11 11 9 8 8 10 12 14 17 19 20 22 23 24 24 23 21 21 22 22 21 20 20 20
11 11 12 12 11 8 8 10 10 12 12 10 9 9 8 9 10 10 10 10 9 9 10 10 11 12 11 10 10 9 8 7 6 7 6 8 11 9 8 8 6 7 8 8 9 11 16 19 16 6 6 10 8 7 6 5 5 6 6 6 5 5 6 6 5 6 8 9 12 14 16 18 18 20 21 24 25 24 24 23 22 22 22 22 23
10 10 11 11 9 8 7 8 9 10 10 10 10 8 6 7 9 10 10 10 10 10 10 10 12 12 10 9 8 8 7 5 4 4 4 5 7 9 9 6 4 6 6 7 8 9 14 19 20 20 13 5 4 3 3 3 2 4 5 5 5 5 5 5 5 7 8 10 11 12 14 15 16 17 18 19 21 22 24 25 25 25 25 25 25
9 9 10 9 7 7 7 7 7 8 10 10 9 7 5 6 9 10 10 8 8 9 10 10 11 12 10 8 7 8 7 5 6 6 6 5 6 7 9 7 4 3 4 5 6 5 12 16 13 16 20 16 13 11 6 3 5 9 8 7 8 7 7 6 6 8 9 11 12 12 13 14 15 15 16 17 18 19 21 23 25 27 28 28 27
10 9 10 9 7 6 6 6 7 7 9 9 7 6 5 6 8 8 7 6 6 7 7 8 10 10 10 8 7 8 7 7 8 10 9 8 7 6 7 7 6 3 1 4 4 4 10 15 11 13 17 15 14 12 9 7 8 11 10 9 10 10 10 10 10 11 12 12 13 14 14 15 15 16 16 17 17 18 19 21 23 25 27 29 29
11 10 10 9 8 6 5 6 6 6 8 8 6 7 6 5 7 6 6 7 6 5 5 5 8 9 9 7 5 7 8 7 7 8 8 7 7 5 4 4 5 5 3 2 3 4 12 16 13 14 17 15 13 11 10 9 11 11 10 10 10 10 11 12 12 13 14 15 16 16 17 18 19 20 20 19 19 19 19 20 21 23 25 27 29
11 10 9 9 8 7 6 6 5 5 7 8 7 7 8 6 7 7 5 6 5 5 4 3 6 8 8 6 5 6 7 6 6 6 4 4 5 6 4 4 4 3 3 2 1 5 13 17 17 18 19 18 16 13 11 10 10 11 12 13 13 13 13 14 14 14 15 16 17 17 18 19 20 21 22 22 21 21 20 20 21 22 23 25 27
11 9 8 8 8 7 7 7 7 6 6 8 7 7 8 7 7 7 6 7 6 4 4 3 4 5 4 3 2 3 5 5 6 5 3 3 4 5 4 3 3 2 4 3 2 6 12 14 17 19 20 19 18 16 15 14 12 12 13 14 16 17 16 16 16 16 16 17 17 18 18 18 19 21 21 21 21 21 21 21 21 21 22 23 25
10 10 8 7 8 8 8 8 8 8 7 8 9 8 8 8 7 7 6 8 8 6 5 6 5 3 3 1 1 0 2 3 4 4 3 4 4 5 4 4 4 4 5 5 4 7 12 14 15 17 17 16 16 16 17 19 17 16 15 15 16 17 17 16 16 16 16 16 17 17 17 19 20 21 22 23 23 22 20 20 19 19 19 20 22
9 9 9 9 9 9 9 10 10 10 9 9 10 10 9 9 9 9 8 9 9 8 8 8 7 6 5 4 3 2 2 2 2 3 3 3 3 5 5 5 5 5 5 6 6 7 11 14 14 14 14 14 16 16 17 19 19 18 18 17 17 17 17 17 16 17 16 16 17 17 17 18 18 19 20 22 24 24 23 21 20 19 18 18 19
7 6 8 9 10 10 11 12 12 13 13 12 12 12 11 11 11 11 11 11 10 10 11 9 8 8 7 6 5 4 4 2 1 2 3 2 1 1 1 2 3 4 4 5 6 7 9 12 12 13 15 16 17 17 17 18 18 18 19 19 18 17 17 17 17 17 17 17 19 19 18 17 15 14 16 18 20 22 24 24 22 21 20 20 20
7 5 6 10 11 12 13 15 15 15 16 15 15 14 13 13 14 13 14 13 12 11 12 11 9 9 9 7 5 5 5 2 1 0 0 1 2 1 1 2 2 4 5 5 6 7 8 11 13 14 15 16 17 17 17 17 17 17 18 19 18 17 17 17 18 18 18 18 18 18 17 15 14 14 14 15 16 17 20 22 23 22 22 22 23
11 8 7 9 11 13 15 16 16 17 18 18 18 18 17 16 16 16 16 16 14 13 13 12 10 10 9 7 5 6 6 4 3 3 3 3 4 3 3 3 3 5 6 6 6 6 8 11 14 15 15 16 17 17 16 18 19 19 19 19 18 18 16 15 16 16 16 16 16 16 17 17 17 18 17 16 15 16 18 21 23 24 24 24 25
16 15 14 13 13 15 16 14 13 15 18 19 20 20 20 19 18 18 19 19 16 14 15 13 11 10 10 7 7 7 6 5 5 5 5 5 5 4 3 4 4 5 6 6 7 7 8 10 13 15 16 15 16 17 16 17 19 20 19 19 18 17 16 17 17 16 16 17 18 18 20 21 22 21 19 18 18 18 19 21 24 25 25 26 27
20 21 20 19 19 19 19 17 15 13 15 19 21 21 20 20 20 20 21 21 19 17 17 15 13 13 11 9 8 9 8 8 8 8 8 7 5 5 5 6 6 7 7 7 7 7 9 11 12 13 15 15 16 16 16 16 17 18 19 20 20 19 20 21 22 21 22 22 23 23 24 23 22 20 18 18 19 19 19 20 22 25 27 28 29
21 21 21 21 21 22 23 23 20 18 16 17 20 21 19 18 19 22 24 23 21 20 19 18 17 16 14 12 11 11 11 10 10 10 9 7 7 9 9 9 8 8 7 7 8 9 10 12 14 14 15 17 17 17 18 17 17 17 18 20 21 21 21 21 21 21 23 24 23 23 22 21 20 19 18 18 18 18 18 18 19 21 24 27 29
19 20 20 20 21 23 25 24 22 21 21 20 20 21 21 19 19 22 25 26 24 22 22 20 18 17 14 13 13 12 12 12 11 11 10 9 10 11 10 9 9 8 8 8 9 11 12 13 15 16 16 17 17 17 17 17 17 18 20 21 22 23 24 24 21 18 17 18 19 18 18 18 20 22 21 21 21 20 20 19 18 19 20 21 24
14 16 18 19 19 21 24 25 23 22 22 23 23 23 23 23 23 22 23 27 27 24 23 21 19 17 16 15 14 13 13 13 12 11 11 11 11 10 10 9 8 6 7 9 10 12 13 14 15 15 15 16 17 16 17 19 20 21 22 23 23 24 25 24 22 18 14 14 18 21 19 18 21 24 24 24 25 24 24 24 23 21 21 21 22
13 14 17 18 19 19 21 23 22 21 21 22 23 24 24 25 26 24 22 26 27 25 24 24 21 19 18 16 15 13 13 13 13 12 12 12 11 9 8 7 6 6 7 9 11 12 13 15 16 16 15 17 18 19 20 20 20 20 22 23 23 22 20 17 17 19 18 18 24 29 27 23 22 25 27 26 27 27 28 29 29 27 26 25 25
13 14 16 17 17 17 17 18 18 18 19 19 20 23 23 24 25 24 22 25 27 26 26 25 23 21 18 17 15 14 14 14 13 13 12 13 11 9 8 7 7 7 7 8 10 12 14 17 19 19 19 20 22 22 21 20 20 22 25 25 23 21 20 17 16 20 25 27 30 33 34 32 27 28 30 30 29 30 30 30 31 31 31 30 29
9 10 11 13 14 14 13 13 13 14 15 16 17 19 20 21 22 22 23 26 29 28 25 24 21 19 17 16 15 15 14 13 12 12 12 12 11 10 9 9 8 7 7 9 10 12 14 17 20 22 22 22 23 23 22 22 24 26 25 24 23 21 21 21 22 25 29 31 30 30 34 35 31 28 30 30 29 29 29 28 26 26 27 28 29
6 6 7 9 11 12 11 10 10 11 12 14 14 14 15 17 19 22 24 26 27 24 22 20 18 16 15 15 16 14 12 11 10 10 10 11 11 12 12 11 10 9 10 12 14 14 14 16 19 22 22 22 23 25 24 24 25 26 26 26 25 24 25 27 29 29 30 29 27 25 28 30 28 27 28 27 27 28 27 26 24 23 23 25 26
7 7 8 9 9 11 13 12 10 9 11 13 13 13 14 14 16 20 23 23 22 20 17 16 15 14 13 14 14 11 9 8 9 9 10 11 12 14 13 12 12 12 14 16 17 16 15 15 18 20 20 20 21 22 22 23 24 26 26 26 26 28 30 31 29 28 27 25 22 20 23 26 26 27 29 27 27 28 26 25 24 23 24 27 27
8 9 10 10 10 9 11 12 11 10 11 13 13 12 12 11 15 21 22 21 19 17 14 13 14 14 13 12 11 9 9 10 10 11 12 13 15 16 14 13 14 14 15 16 16 15 15 15 17 18 18 18 18 18 19 20 21 23 24 25 27 29 29 27 25 25 23 23 20 19 23 26 24 25 28 28 28 29 27 25 23 22 25 27 28
10 11 11 11 12 10 9 11 11 10 11 13 12 10 10 13 18 20 20 18 16 15 14 13 12 11 10 9 8 9 10 11 12 13 14 15 16 16 15 14 14 14 14 14 13 13 14 15 17 17 18 19 20 21 22 22 23 23 23 24 24 25 23 20 19 20 21 22 21 21 23 25 23 25 29 28 26 25 22 19 18 19 22 24 25
12 13 13 12 12 12 11 11 10 9 10 12 12 12 13 16 17 16 16 16 15 14 12 9 6 6 7 8 9 11 12 13 13 13 14 15 15 14 13 14 14 14 15 15 16 17 18 19 20 21 23 24 25 26 27 28 28 27 27 26 25 23 21 17 16 19 21 21 19 18 20 23 22 23 24 23 22 20 18 18 19 19 21 22 22
13 14 15 14 12 12 12 13 11 9 10 12 14 15 16 16 15 14 14 13 12 9 7 6 6 6 6 6 7 10 12 12 12 13 13 12 12 12 12 13 15 17 18 18 20 21 21 21 22 22 22 22 21 21 21 22 22 22 22 24 23 23 22 20 19 17 14 13 13 14 18 21 20 18 18 17 14 13 16 20 22 21 23 24 21
Wind_Direction
187 189 190 204 216 214 212 212 206 205 208 212 216 222 231 231 222 217 217 219 229 252 252 242 232 233 236 243 268 261 233 230 214 194 191 185 167 159 171 186 184 179 179 168 167 178 180 179 181 189 192 184 176 175 174 167 173 159 141 178 210 192 146 116 108 104 102 99 95 92 91 89 87 88 89 91 94 95 97 100 100 100 102 103 100
187 186 192 208 219 218 217 215 209 209 215 219 219 227 235 228 218 208 205 217 247 268 257 239 233 229 231 242 264 257 228 217 199 193 196 190 179 173 173 179 182 175 179 181 173 175 180 185 187 191 194 191 185 178 178 175 173 163 148 167 197 213 218 164 127 112 104 102 100 95 94 94 91 90 90 91 92 93 95 98 101 98 99 99 100
192 192 198 208 218 217 216 219 212 207 213 217 216 227 232 220 220 224 222 237 257 262 247 228 227 229 229 231 236 226 223 225 215 206 204 203 200 195 191 183 179 179 183 191 180 174 182 185 188 192 184 184 188 181 182 185 178 172 171 177 185 196 216 199 143 122 113 106 103 100 96 96 96 96 94 93 91 91 95 99 101 101 101 100 100
191 196 202 204 215 223 222 223 217 206 208 212 210 216 217 214 223 227 226 241 250 241 235 214 207 225 229 227 240 235 231 231 222 216 212 213 214 208 211 208 189 182 187 194 188 179 185 187 189 195 187 181 188 186 182 187 182 177 183 193 192 187 199 218 192 147 130 118 110 106 102 101 98 100 99 96 95 95 97 99 103 105 106 106 104
193 199 204 206 213 221 224 224 221 212 208 207 202 203 205 209 222 220 223 236 238 232 249 238 215 224 228 251 278 270 253 232 214 215 219 215 214 214 219 217 202 192 193 195 198 191 185 187 192 199 195 180 189 200 190 180 183 185 188 195 198 186 189 215 221 212 159 133 122 116 109 111 105 102 103 100 101 100 101 102 105 108 110 111 109
203 204 203 210 210 210 220 223 218 210 204 198 194 196 198 204 211 214 226 237 238 245 254 232 230 257 270 276 274 298 325 222 207 213 220 216 214 219 222 218 209 200 203 199 199 201 196 195 196 202 202 183 190 204 199 187 178 183 189 192 198 191 186 205 218 217 180 150 137 131 122 121 117 112 110 107 110 107 107 105 106 113 115 118 119
200 194 195 207 208 206 212 214 213 208 202 195 190 187 192 209 213 220 236 239 242 259 233 198 231 306 291 252 225 219 52 132 174 154 206 215 222 225 223 219 214 207 209 209 206 205 204 205 203 207 210 191 192 201 204 208 190 175 186 193 199 197 191 199 211 216 201 178 163 155 145 138 132 128 125 121 124 119 118 115 113 116 117 124 126
198 190 197 205 201 202 208 213 219 220 210 200 194 186 186 208 223 242 245 209 177 186 197 203 231 291 263 231 174 198 153 108 141 81 111 204 233 233 228 221 220 218 214 212 215 217 213 213 210 211 214 206 201 202 205 215 209 191 190 201 207 202 197 199 203 209 216 214 207 188 169 156 148 143 142 137 138 137 133 130 127 128 126 128 129
204 201 210 208 201 200 204 214 220 219 210 204 203 196 190 195 207 227 226 206 200 184 192 210 226 257 270 282 290 201 203 106 151 126 98 72 33 240 231 228 225 221 216 214 219 222 218 218 218 216 217 214 211 209 208 212 214 208 196 206 214 209 203 203 201 203 214 223 226 211 190 174 164 155 152 150 151 152 152 152 146 148 145 138 135
185 197 211 210 213 208 200 208 216 214 208 208 210 204 198 194 194 202 212 223 219 200 202 213 230 265 287 269 267 256 262 337 102 288 259 5 32 31 239 234 228 219 214 219 224 224 224 223 220 219 220 220 218 216 213 213 215 215 212 210 211 210 208 207 203 200 208 221 226 221 214 199 180 166 159 157 159 160 161 166 163 163 165 159 154
148 167 191 196 216 220 209 215 219 218 220 221 217 211 207 200 197 202 213 226 225 221 226 229 235 249 260 233 236 245 250 274 278 274 273 303 357 8 25 220 223 223 222 226 225 222 225 226 224 222 222 223 222 222 223 221 218 214 214 216 214 215 218 213 208 203 203 213 224 228 232 230 198 177 168 162 162 168 169 174 177 179 180 178 178
113 121 131 139 158 219 226 233 232 231 232 229 220 215 214 212 210 214 222 227 226 229 231 227 224 218 226 236 229 248 247 243 246 238 254 313 340 326 357 51 214 223 225 231 233 230 231 231 230 230 228 226 226 226 227 224 222 215 211 216 218 221 232 229 216 211 207 209 220 230 236 240 225 194 176 167 165 171 179 183 186 192 195 194 194
95 95 102 119 110 118 216 245 243 242 235 227 219 210 212 218 220 221 229 230 219 217 215 207 197 187 197 247 232 261 265 259 260 250 254 324 349 314 322 338 338 35 191 222 233 231 233 234 232 231 229 229 232 232 230 227 227 222 214 214 216 220 227 226 222 221 218 216 217 225 234 240 238 220 200 189 182 179 189 199 201 205 204 205 204
120 108 104 134 134 126 150 186 208 230 226 216 212 211 215 217 218 225 229 229 218 210 208 201 190 182 170 139 180 247 268 265 260 255 258 276 297 309 323 330 314 297 256 232 258 211 225 236 235 233 231 231 234 237 236 232 229 226 222 217 215 216 219 220 225 230 227 226 220 220 229 237 238 233 227 225 216 203 201 209 216 220 216 216 214
140 123 108 127 145 135 130 131 122 180 220 198 189 202 215 210 210 226 226 219 214 210 209 202 183 165 143 115 116 239 287 284 262 254 256 261 270 283 301 315 310 295 283 270 286 324 290 245 237 234 235 237 240 242 244 242 234 228 227 226 221 216 214 219 230 240 242 238 232 225 228 234 234 234 234 233 231 224 219 219 222 229 228 227 225
125 121 113 118 133 142 134 127 111 86 137 176 186 190 202 204 201 209 206 197 204 209 215 204 180 165 130 87 59 63 342 287 263 239 231 240 251 263 276 289 301 302 294 278 270 275 282 268 238 229 236 241 247 249 249 250 246 237 231 231 231 225 217 216 223 236 246 243 237 232 231 233 231 230 234 235 235 232 230 231 230 233 234 233 232
117 119 115 107 114 130 130 119 104 89 96 126 144 128 123 165 188 196 197 193 191 191 203 205 191 184 155 113 90 26 217 212 215 225 217 208 227 250 260 266 286 312 299 276 258 257 267 265 250 244 242 242 251 254 253 254 251 244 238 235 234 233 227 221 219 224 236 239 237 235 232 233 233 229 229 232 236 235 236 238 236 237 237 235 235
118 118 106 98 104 117 134 127 103 98 103 113 118 101 96 103 108 138 185 188 178 168 165 174 189 193 186 161 134 122 186 164 124 199 241 222 224 243 252 250 257 259 253 260 256 245 253 261 256 248 247 249 249 248 250 253 247 242 240 239 238 239 234 229 224 222 227 232 235 237 235 235 237 233 230 232 237 238 238 241 240 239 239 240 239
109 113 102 95 94 98 126 133 111 107 109 108 111 104 98 97 88 85 104 148 159 154 146 139 153 180 194 187 158 149 180 172 169 166 214 247 242 245 255 253 242 234 229 235 235 224 233 250 264 257 249 249 245 241 245 251 248 242 239 239 241 244 242 237 233 229 229 232 234 234 234 237 240 238 237 236 238 241 243 245 246 243 241 243 242
99 103 100 95 90 87 100 113 106 105 109 107 107 105 101 100 94 87 84 96 110 113 122 127 123 129 163 177 168 175 199 192 171 153 128 184 266 268 272 264 244 237 228 227 232 228 228 235 255 264 256 247 235 229 238 248 250 249 246 241 241 244 244 243 241 238 236 237 238 236 234 238 241 242 242 242 242 243 246 249 251 250 247 245 243
102 103 99 94 95 90 90 95 92 90 98 106 110 109 106 102 98 92 87 87 88 93 103 105 102 103 115 153 178 187 187 149 143 159 141 152 270 286 309 301 274 260 237 226 233 232 230 232 233 245 256 253 242 234 244 250 246 245 245 246 246 243 240 240 242 243 242 242 243 243 241 240 242 245 246 247 245 244 247 250 251 252 251 249 246
112 111 107 100 103 99 91 90 89 84 84 92 101 102 102 100 97 97 96 94 92 97 102 96 91 90 89 100 129 153 146 93 68 55 99 172 244 281 343 343 318 314 272 232 233 232 232 238 236 241 247 248 250 248 249 250 245 240 241 244 247 243 237 236 239 242 243 245 246 245 244 243 242 244 247 249 248 245 246 247 248 250 250 248 247
121 117 115 108 106 107 103 98 98 94 85 86 91 92 95 99 99 101 103 103 102 101 101 98 93 86 83 88 96 104 100 80 64 56 58 64 307 289 349 356 355 9 6 289 245 241 237 240 238 244 252 249 243 244 247 246 242 241 245 248 249 248 245 243 242 242 245 250 252 249 245 244 243 242 245 248 248 247 245 245 245 245 243 240 240
123 117 115 111 106 109 113 110 106 102 96 93 92 93 98 100 101 102 102 108 114 111 104 99 95 86 80 84 86 86 84 80 70 58 52 47 43 26 1 5 2 358 4 356 303 278 266 258 248 243 247 238 225 231 252 253 245 249 257 261 262 265 268 259 249 246 247 253 256 252 245 244 245 243 242 243 245 244 243 243 242 239 238 237 238
130 121 118 114 109 108 114 117 114 108 105 99 91 92 93 95 102 101 97 103 115 122 115 105 99 91 83 79 78 77 75 72 66 62 60 52 48 35 4 5 358 342 354 5 6 5 357 328 287 259 245 236 231 234 245 253 256 269 276 277 272 272 281 278 265 261 255 256 259 254 250 250 249 247 243 241 241 241 240 242 243 241 241 242 241
139 131 125 120 118 116 115 119 122 119 114 104 99 100 93 92 98 96 91 93 102 115 120 116 109 100 95 91 85 83 76 65 56 54 56 52 49 37 12 2 355 351 353 2 23 42 38 34 37 27 252 249 256 245 248 269 282 300 313 321 311 298 304 300 289 286 272 268 269 264 261 260 257 255 251 248 244 242 240 243 245 244 244 246 244
147 138 132 132 133 132 127 123 124 129 124 112 108 108 100 96 97 92 87 82 85 95 102 112 111 100 98 98 91 95 89 71 57 43 52 62 56 46 33 28 8 353 347 354 15 40 39 41 49 49 48 37 10 6 319 316 14 12 -0 2 356 344 342 328 299 289 277 270 271 271 270 266 263 261 258 257 253 249 246 246 246 245 244 245 245
153 146 143 146 147 140 137 133 128 131 130 124 119 114 106 106 103 94 90 84 79 84 90 105 111 100 95 90 82 93 88 62 58 55 65 81 72 56 43 45 49 359 332 347 356 14 28 35 37 28 32 38 33 28 19 25 39 21 3 351 342 332 329 321 299 290 280 270 268 272 277 276 274 270 264 261 259 257 254 251 249 249 248 248 246
162 155 155 159 161 152 146 147 143 137 135 136 141 136 123 116 116 112 113 115 102 90 90 102 114 111 100 87 73 85 85 70 66 58 57 67 66 53 35 31 43 54 25 349 334 309 357 17 27 9 8 15 17 18 22 16 -0 356 352 343 334 323 316 311 303 298 291 283 278 277 280 282 282 281 277 272 267 263 261 257 254 253 252 252 251
172 164 163 169 174 172 165 162 161 158 152 154 162 157 151 145 142 148 152 146 134 125 115 101 114 124 119 105 81 84 93 87 81 66 53 57 56 49 47 33 27 43 62 353 328 327 343 353 4 -0 353 353 354 355 4 3 349 340 332 326 326 319 312 309 306 302 296 292 290 287 286 285 284 284 283 281 277 272 268 264 261 258 255 255 255
179 174 172 178 183 183 185 187 186 185 171 169 178 173 170 173 170 173 169 153 153 154 148 115 111 121 127 121 91 92 107 107 108 98 61 46 40 35 58 65 37 25 22 9 298 321 341 343 342 342 341 339 340 342 345 346 342 333 324 319 315 310 306 302 299 299 297 294 293 291 289 287 286 286 285 283 280 277 272 268 266 263 259 257 256
183 185 188 191 197 196 197 204 206 207 193 184 194 192 184 190 193 194 183 168 178 183 166 156 122 112 123 120 55 85 112 111 121 121 87 64 31 7 10 30 31 355 334 340 274 304 330 336 331 332 335 335 340 347 343 335 332 328 323 319 315 312 312 307 301 298 296 295 296 294 292 290 289 287 285 282 280 277 273 269 269 268 264 261 260
187 191 198 206 216 216 211 217 220 220 215 202 205 209 203 208 213 215 206 189 195 203 183 176 175 163 165 183 291 316 62 72 121 129 85 87 68 39 43 34 25 20 351 339 314 308 320 326 327 332 340 343 343 342 334 327 323 321 318 317 316 316 317 315 311 306 302 301 302 301 299 297 295 291 285 280 276 273 270 268 269 270 270 269 268
185 196 205 211 220 226 225 227 227 228 229 217 215 217 214 216 221 225 224 209 206 212 203 195 201 204 195 182 189 224 294 0 105 106 69 79 75 56 64 58 38 32 18 358 343 320 316 323 331 334 338 338 331 325 324 323 322 322 320 317 315 314 314 314 313 311 310 308 308 308 308 305 303 300 294 285 277 270 264 263 265 267 271 273 274
165 187 208 215 218 224 229 232 231 231 233 227 222 223 221 222 224 227 228 222 217 218 218 214 215 218 214 199 194 221 258 288 78 79 59 58 53 28 38 44 27 13 11 5 357 345 328 326 329 329 329 328 322 320 321 320 319 318 315 314 313 312 313 314 312 311 311 310 308 308 307 307 307 306 304 298 287 273 261 258 261 266 270 274 276
193 189 196 201 205 213 227 234 231 228 230 229 226 225 226 227 227 228 228 225 223 225 226 224 223 228 229 218 210 229 246 234 167 157 272 253 256 262 295 305 315 323 327 330 337 343 335 325 321 321 323 321 317 318 319 319 318 317 316 316 316 313 310 310 309 307 306 304 303 304 305 306 309 310 310 307 300 287 271 263 265 270 274 277 280
232 241 225 203 201 209 221 231 233 231 230 227 225 225 226 226 225 226 227 227 226 228 229 228 230 232 228 221 217 226 235 224 207 227 236 242 261 269 279 290 290 299 307 308 312 320 324 322 316 312 314 315 314 316 319 322 322 318 314 314 316 316 312 307 302 300 301 300 299 301 303 304 307 309 308 306 303 297 287 278 275 276 276 279 283
232 237 238 229 224 223 225 229 233 232 226 221 220 220 222 223 223 222 224 226 226 227 230 231 230 225 216 215 222 225 232 235 229 235 244 250 264 268 265 276 283 287 295 301 303 306 310 313 310 309 311 314 316 318 321 324 323 320 319 318 314 312 312 310 306 300 300 302 300 300 303 304 306 307 306 306 304 300 295 288 282 278 277 278 282
232 235 239 239 237 239 240 240 241 235 224 223 225 223 220 220 222 222 221 221 222 222 224 225 221 216 215 220 226 229 237 242 239 244 253 256 265 278 280 280 282 285 292 299 302 306 310 311 310 310 311 311 313 316 318 319 318 319 328 333 325 315 312 313 312 308 304 302 299 298 300 303 306 307 306 305 305 303 300 295 288 283 279 279 281
238 244 248 249 249 252 252 250 246 238 232 234 236 234 228 222 223 226 223 218 217 215 214 216 215 215 222 227 227 231 237 241 246 252 255 262 281 293 292 289 290 293 298 304 308 310 311 310 308 309 310 309 309 313 315 318 323 325 331 335 330 323 320 315 311 311 311 309 306 302 300 303 304 304 303 302 303 306 306 303 302 297 290 285 282
245 250 253 255 257 258 256 253 249 243 242 246 248 246 242 233 228 230 227 220 214 209 206 207 210 213 218 222 223 231 240 244 250 253 252 268 289 296 293 291 294 297 304 313 320 323 321 316 312 313 314 312 313 319 321 321 327 327 323 323 322 320 323 319 311 311 316 313 311 307 303 305 308 305 302 298 296 300 305 307 309 310 307 303 297
244 250 254 256 257 256 254 252 250 245 244 247 252 255 254 247 239 237 234 223 214 206 202 201 203 208 213 218 223 233 241 245 247 249 256 273 287 289 288 290 295 301 314 324 329 331 327 320 315 315 315 311 312 318 317 312 315 317 318 322 323 320 323 323 315 311 313 313 316 313 301 299 307 306 302 298 293 293 297 301 304 307 308 308 308
243 250 254 254 254 254 255 254 251 248 248 252 257 260 261 254 245 241 237 223 211 205 202 200 200 204 210 217 222 231 240 243 247 252 263 275 282 283 281 282 288 300 316 325 327 326 322 315 312 311 307 304 306 309 310 310 313 314 314 318 321 321 324 326 316 308 305 309 319 317 305 298 304 305 300 297 294 292 293 294 295 296 297 298 300
248 251 254 253 251 250 253 255 256 258 261 264 265 264 263 257 244 239 235 222 211 206 204 203 203 205 211 216 219 227 235 239 246 255 266 276 282 281 273 264 266 283 304 316 317 318 316 310 305 303 300 298 301 304 307 309 311 310 310 310 312 314 314 314 308 303 304 310 317 316 307 300 303 304 301 298 297 296 295 295 293 289 287 288 289
259 253 254 256 251 248 252 259 266 274 273 270 270 267 263 254 244 241 234 220 210 206 203 201 203 206 211 216 219 223 228 234 244 254 265 276 282 279 267 254 251 265 289 302 306 309 311 305 297 296 298 297 295 297 301 304 305 305 306 305 304 303 304 304 302 302 306 311 314 312 303 301 303 303 299 299 300 301 302 304 302 296 292 290 288
300 280 272 269 258 250 256 268 275 279 276 272 272 270 264 258 248 239 226 212 205 202 198 195 198 202 210 215 217 217 220 231 243 249 257 268 273 267 257 249 252 269 287 297 302 304 305 303 296 296 300 300 296 298 302 303 300 299 299 297 296 297 298 299 299 301 304 307 309 305 296 297 304 301 296 298 301 303 306 307 305 304 304 304 300
309 302 289 281 272 263 264 268 271 270 269 269 268 268 270 264 239 219 207 197 189 183 181 186 193 196 199 200 200 202 211 228 238 242 250 257 255 249 246 250 261 275 286 292 298 300 301 300 297 298 302 302 299 300 301 299 295 292 290 288 289 293 296 297 298 300 302 304 307 301 290 293 300 296 294 298 300 301 305 307 307 305 303 302 302
295 298 289 278 278 277 265 257 255 256 263 267 266 264 260 241 211 197 189 184 178 172 175 189 196 196 197 199 206 225 242 249 253 255 258 258 251 246 249 258 268 275 282 288 292 294 294 291 290 294 296 297 296 296 296 295 292 291 290 288 288 291 294 295 295 297 299 301 306 303 292 293 299 295 294 299 301 301 304 306 308 307 303 301 297
288 291 291 279 271 270 260 249 244 243 249 254 252 241 221 204 194 186 181 179 178 176 179 185 191 200 213 229 247 261 264 260 257 257 256 252 248 250 257 266 272 276 280 284 283 281 280 276 276 279 281 282 284 284 286 289 290 293 297 297 297 297 295 290 288 292 294 295 303 306 295 289 294 294 295 300 303 306 309 308 306 310 316 315 304
289 289 293 283 263 254 253 248 241 238 238 234 225 212 200 194 189 180 176 176 173 172 177 182 198 222 236 250 260 260 256 252 248 244 242 242 245 253 263 270 276 278 279 282 282 281 280 278 277 277 278 279 280 280 282 283 284 287 290 292 295 296 290 283 283 291 293 291 300 308 297 290 296 299 303 313 314 313 316 314 309 318 333 335 320
291 292 294 284 258 241 242 241 232 226 221 211 204 200 196 195 191 182 176 175 170 169 177 185 194 212 225 236 248 249 245 243 243 241 242 247 255 265 275 283 288 290 290 292 293 292 292 292 293 295 295 295 295 294 294 293 291 290 289 290 293 290 284 280 281 288 291 288 296 303 295 295 303 307 317 328 323 314 320 317 311 320 336 339 329
Height
822 823 824 824 824 825 826 827 827 827 827 828 828 829 830 831 832 832 832 833 834 835 835 836 837 837 838 838 839 840 840 841 842 842 842 842 842 843 843 843 843 843 843 843 843 844 845 845 845 845 845 846 847 847 848 848 849 850 850 851 851 851 852 852 852 852 852 852 852 853 853 853 853 853 854 853 853 853 853 852 852 852 852 852 852
822 823 824 824 825 826 827 827 827 827 827 827 828 829 830 831 831 832 832 833 834 835 835 836 836 837 837 838 839 839 840 840 841 842 842 842 842 843 843 843 843 842 843 843 843 844 845 845 845 845 845 846 846 847 848 848 849 850 850 851 851 851 852 852 852 852 852 852 853 853 853 853 854 854 854 854 854 854 854 854 853 853 853 853 853
821 822 823 824 824 825 826 827 827 827 827 827 828 828 829 831 831 832 832 832 833 834 835 835 835 836 837 838 838 839 840 840 840 841 842 842 842 843 843 843 843 843 843 843 843 844 845 845 845 845 845 845 846 847 847 848 848 850 850 851 851 851 852 852 852 852 852 853 853 853 854 854 854 854 855 855 855 855 855 855 854 854 854 854 854
821 822 823 823 824 824 825 826 826 826 826 827 827 828 829 830 831 831 832 832 832 833 833 834 834 835 836 837 838 838 839 840 839 840 841 841 842 842 842 843 843 843 843 843 843 844 844 845 845 845 845 845 846 846 847 847 848 849 850 850 850 851 851 852 852 852 852 853 853 854 854 854 854 855 855 855 855 856 856 856 856 855 856 855 855
821 822 823 823 823 823 824 825 826 826 826 826 827 828 829 830 830 830 830 831 831 831 832 833 834 834 835 836 837 837 838 838 839 838 839 840 841 841 842 842 842 843 843 843 843 844 844 845 845 845 845 845 846 846 846 847 847 848 849 849 849 850 851 851 852 852 852 852 853 853 854 854 855 855 855 855 855 856 856 856 856 856 856 856 856
820 821 822 822 822 823 823 824 825 825 825 825 826 827 828 829 829 829 829 830 830 831 831 832 833 833 834 835 836 836 836 837 838 838 838 838 839 840 841 841 841 842 842 843 843 844 844 845 845 846 845 845 845 846 846 846 847 847 847 848 849 849 850 851 851 852 852 852 853 853 854 854 855 855 855 855 855 856 856 856 857 857 857 857 857
819 820 821 821 821 821 822 823 823 823 824 824 825 826 827 828 828 829 829 829 830 830 831 832 832 832 833 833 834 834 835 836 837 837 838 839 839 839 840 840 841 841 842 842 843 843 844 845 845 845 845 845 846 846 846 846 846 846 847 847 848 849 850 850 851 851 852 852 852 852 853 854 854 855 855 855 855 856 856 857 857 857 857 857 857
816 817 818 819 820 820 821 822 822 822 823 823 824 825 826 827 828 828 829 829 829 828 829 829 830 831 832 832 832 832 833 834 835 836 838 839 839 839 839 839 840 840 840 841 842 842 843 844 845 845 845 845 846 846 846 846 846 846 847 847 847 848 849 850 850 851 851 851 852 852 852 853 854 854 855 855 855 855 856 856 857 857 857 857 857
814 815 817 819 819 819 820 822 822 822 822 823 823 824 825 826 827 828 828 828 828 828 827 828 828 829 830 831 832 832 832 833 834 835 836 838 839 839 839 839 839 839 839 840 840 841 842 843 844 844 845 845 846 846 847 846 846 846 846 847 847 848 848 849 850 850 851 851 851 851 852 852 853 854 854 855 855 855 856 856 857 857 857 857 857
816 817 818 819 819 820 820 821 821 820 821 822 823 824 825 826 826 827 828 828 828 828 828 828 828 829 830 830 831 832 832 832 833 834 835 836 837 838 839 838 838 838 838 839 839 840 841 842 843 844 844 845 845 846 846 846 846 846 846 847 847 848 848 849 850 850 850 851 851 851 852 852 853 854 854 855 855 855 856 856 856 857 857 857 857
818 818 818 819 819 818 819 819 819 819 820 822 823 824 825 826 826 827 828 828 828 828 828 828 828 828 829 829 830 831 831 831 832 833 835 836 836 837 838 837 838 838 838 838 839 839 840 841 841 842 843 843 844 844 845 845 845 846 846 847 847 848 849 849 849 850 851 851 851 851 852 852 853 854 854 855 855 855 856 856 856 856 857 857 857
816 817 818 818 817 816 816 817 818 818 819 821 822 824 825 826 826 827 828 828 828 828 829 828 828 828 829 829 829 829 830 830 831 832 833 834 835 835 836 837 838 838 838 838 839 839 839 840 840 840 841 841 842 842 843 844 844 845 845 846 847 848 848 849 849 850 850 851 851 851 852 852 853 854 855 855 855 855 856 856 856 856 857 857 857
816 817 817 817 817 817 817 817 817 818 819 821 822 823 824 825 826 827 827 827 827 828 828 828 828 828 829 829 829 829 830 830 830 831 832 833 834 834 834 835 836 837 838 838 838 838 839 839 839 840 840 841 841 841 842 843 844 844 844 845 846 847 848 848 849 850 850 851 851 851 851 852 853 853 854 855 855 855 855 856 856 856 856 856 857
818 818 818 818 819 819 819 819 819 819 820 822 823 823 824 824 825 826 827 827 827 827 828 828 828 828 828 828 829 829 829 829 829 829 830 832 833 833 833 834 835 836 837 837 837 837 837 838 839 839 840 841 841 841 842 842 843 843 843 843 844 845 846 847 848 849 849 850 850 851 851 851 852 852 853 854 855 855 855 855 856 856 856 856 856
820 820 820 820 821 821 821 821 822 821 821 822 823 823 824 824 824 825 826 827 827 827 828 828 828 828 828 829 830 830 830 829 829 829 830 831 832 832 833 833 834 834 835 836 836 835 836 837 838 838 839 840 840 841 841 841 841 842 842 842 843 844 845 846 847 847 848 849 849 850 850 850 851 851 852 853 854 854 855 855 855 856 856 856 856
820 821 822 822 822 822 822 822 822 822 822 823 823 823 824 824 824 825 825 825 826 827 827 828 828 828 829 830 831 832 833 831 830 830 831 831 832 832 833 833 833 833 833 834 835 835 835 836 836 837 837 838 839 839 839 840 840 841 841 841 842 842 843 844 846 846 847 848 848 849 849 849 850 850 851 852 853 853 854 854 855 855 856 856 856
821 822 822 823 823 823 823 823 823 823 823 823 823 824 824 824 824 824 824 825 825 826 827 827 828 828 829 831 832 834 834 832 832 832 831 831 832 832 832 833 833 833 832 833 834 834 834 835 835 835 836 836 837 837 838 838 838 839 840 840 841 841 842 843 844 845 846 846 847 847 848 848 849 849 850 851 851 852 853 853 854 854 855 855 855
821 822 823 823 823 823 823 823 823 823 822 823 823 824 824 824 824 824 824 824 825 826 827 827 828 828 829 829 830 832 832 832 833 833 832 832 832 832 832 832 832 832 832 832 832 833 833 833 833 834 834 834 834 834 835 836 836 837 837 838 839 840 841 842 843 844 844 845 845 846 847 847 847 848 849 850 850 851 851 852 853 853 854 854 855
822 822 823 823 823 823 823 823 823 823 823 823 823 824 824 824 824 824 824 824 824 825 826 827 827 828 829 828 828 830 831 831 832 833 833 833 832 832 832 832 832 832 831 832 832 832 832 832 832 832 832 832 833 832 833 833 834 834 835 836 837 839 840 840 841 842 843 844 844 845 845 846 846 847 847 848 849 849 850 850 851 852 853 853 854
822 822 823 823 823 823 823 823 824 824 823 823 824 824 824 824 824 824 824 824 824 824 825 826 827 828 828 828 829 831 831 831 831 832 833 833 832 831 831 831 831 831 831 831 831 831 831 831 831 831 830 830 831 831 831 832 832 833 834 834 835 836 837 838 840 841 842 843 843 844 844 844 845 845 846 846 847 848 848 849 850 850 851 852 852
822 822 823 823 823 824 823 824 824 824 824 824 824 824 824 824 825 825 825 824 824 824 825 826 826 827 828 829 830 831 831 831 831 831 832 833 833 832 831 831 830 829 830 830 830 830 829 829 829 829 829 829 830 830 830 830 831 831 832 833 834 834 835 836 838 840 841 842 843 843 844 844 844 844 844 844 845 846 846 847 848 849 849 850 850
821 822 822 823 823 824 824 824 825 825 825 825 825 825 825 825 825 826 825 825 825 826 826 827 827 827 828 828 829 830 831 831 831 831 831 832 832 832 831 831 830 829 828 829 829 828 828 827 827 827 828 828 828 829 829 829 829 830 831 832 832 832 833 834 836 838 839 840 841 842 843 843 843 843 842 843 843 843 844 845 846 846 847 848 848
821 822 823 823 824 824 825 825 826 826 826 826 826 827 827 827 827 826 826 826 827 827 827 828 828 828 828 828 829 830 831 831 831 831 831 832 832 832 831 830 829 828 828 828 828 827 827 826 825 825 825 826 827 828 828 827 828 829 830 830 831 831 831 833 834 835 836 837 840 842 842 842 842 842 841 841 841 842 842 843 844 844 845 846 847
821 822 823 824 824 825 825 826 827 827 827 827 827 828 828 828 828 828 828 828 828 828 828 829 829 829 829 830 830 831 831 831 832 832 832 832 831 831 831 830 829 828 828 828 827 827 826 826 825 824 824 825 826 826 826 827 827 828 829 829 829 829 830 831 832 833 834 835 838 840 840 840 839 840 839 839 839 840 841 841 842 842 843 844 845
821 822 823 824 825 826 826 827 827 828 828 828 829 829 829 829 829 829 829 829 829 829 830 830 830 830 831 831 832 832 832 832 832 832 832 832 831 831 831 830 830 829 828 828 828 827 827 826 825 824 825 825 825 826 826 827 827 828 828 828 828 828 828 829 830 832 833 835 836 837 838 837 837 837 837 837 837 838 838 839 839 841 841 842 842
821 822 823 824 825 826 827 827 828 829 829 830 830 830 830 830 830 830 830 830 830 830 831 831 831 832 832 832 832 833 833 833 833 833 832 832 832 832 832 830 830 829 829 828 828 827 828 827 825 824 826 826 826 827 827 828 828 827 828 828 828 828 828 828 829 831 832 834 834 835 835 835 835 835 835 835 835 836 836 836 837 838 839 839 840
820 822 823 824 825 826 827 828 829 829 830 831 831 831 831 831 831 832 832 832 832 832 832 832 832 833 833 833 833 833 834 834 834 833 833 833 833 833 832 832 831 831 829 829 828 829 830 829 827 826 828 828 828 828 828 828 828 828 828 828 828 829 829 830 830 831 833 833 834 834 833 833 833 833 833 833 833 833 833 834 835 835 836 837 837
820 822 823 824 825 826 827 828 829 830 830 831 832 832 832 833 833 833 833 833 833 833 833 833 834 834 834 834 834 834 834 834 834 834 834 833 833 833 833 833 834 833 832 830 829 829 830 831 830 829 829 830 830 829 829 828 829 828 829 829 829 830 830 831 832 832 833 833 833 833 832 832 832 831 831 831 831 831 831 831 832 832 833 833 834
819 821 823 824 825 826 827 828 829 830 831 831 832 833 833 833 834 834 834 835 835 835 835 835 835 835 835 835 835 835 835 835 835 835 835 834 834 834 834 834 834 835 834 833 831 830 830 831 831 830 830 830 830 829 829 829 829 828 828 829 829 829 830 830 831 831 831 831 831 831 831 830 830 830 829 829 829 829 829 829 829 830 830 831 832
818 820 822 823 825 826 827 828 829 830 831 831 832 833 833 834 834 834 835 835 835 835 835 835 835 836 836 835 836 836 836 836 835 835 836 835 835 835 835 835 835 835 835 835 833 831 829 829 830 831 830 830 829 829 829 829 828 828 828 828 827 827 827 828 828 828 828 829 829 829 828 828 828 827 827 827 826 826 826 827 827 827 828 829 829
818 820 821 823 825 826 827 828 830 830 831 832 832 833 834 834 834 835 835 835 835 836 836 836 836 836 836 836 836 836 836 835 835 836 836 836 836 836 835 835 835 835 835 835 835 832 830 829 829 829 829 828 828 828 827 827 827 827 826 826 826 826 825 825 826 826 826 826 826 826 826 825 825 824 824 824 824 824 824 824 825 825 825 826 826
817 819 821 823 825 826 827 828 830 831 832 832 833 834 834 835 835 835 836 836 836 836 836 836 836 836 836 836 836 836 835 835 835 835 835 835 835 835 835 835 835 835 835 835 835 833 832 831 829 828 827 826 825 825 824 824 824 825 824 824 824 824 824 824 824 824 824 824 824 823 823 822 822 822 821 821 821 822 822 822 822 823 823 823 824
816 818 820 822 824 826 827 828 829 830 831 832 833 834 834 835 836 836 836 836 836 836 836 836 836 837 837 836 836 836 836 835 835 835 835 835 835 835 835 835 835 835 835 835 834 833 832 831 830 829 828 827 826 825 824 823 822 823 823 823 823 823 823 822 822 822 822 822 821 821 820 820 819 819 819 818 819 819 819 820 820 821 821 821 821
816 816 818 820 822 824 826 827 828 829 830 831 832 833 834 835 836 836 836 837 837 837 836 837 837 837 837 837 836 836 836 836 836 835 835 835 835 835 835 835 835 835 835 834 834 833 832 831 831 830 829 828 827 826 826 825 824 823 823 822 822 822 822 821 821 820 820 820 819 819 818 818 817 817 816 815 816 816 817 817 818 818 818 819 819
816 816 816 818 820 822 825 826 827 828 829 830 831 832 833 833 834 835 836 836 837 837 837 837 837 837 837 837 837 837 837 837 836 836 836 835 835 835 834 835 834 834 834 834 834 833 832 831 831 830 829 828 828 827 827 826 825 824 823 822 822 821 821 820 820 819 819 819 818 817 816 816 815 814 814 813 813 813 814 815 815 816 816 816 816
816 816 815 815 817 820 822 824 825 826 827 828 829 830 830 831 832 833 834 835 836 836 836 836 836 836 837 837 837 837 837 837 837 837 836 836 835 835 834 834 834 834 834 834 833 833 832 831 830 830 829 828 827 827 826 826 825 824 823 822 821 820 820 819 818 818 817 817 816 815 814 814 813 812 812 811 811 811 811 812 813 813 813 813 813
816 816 815 814 815 817 818 820 822 824 825 826 826 826 826 827 829 830 832 833 834 835 836 836 836 836 836 837 837 837 837 837 837 837 837 836 836 835 835 834 834 834 833 833 833 832 832 831 830 829 829 828 827 826 826 825 824 823 822 821 820 819 818 818 817 816 815 815 814 813 813 812 812 811 811 810 810 810 810 810 810 810 810 810 810
815 815 813 812 813 814 815 818 820 822 823 823 823 823 823 823 825 827 829 830 832 833 834 835 835 836 836 836 837 837 837 837 837 837 837 836 836 835 835 834 834 833 833 833 833 832 832 831 830 829 828 828 827 826 825 825 823 822 821 820 819 818 817 816 815 815 814 813 813 812 812 811 810 810 809 809 809 808 808 808 808 808 808 808 807
812 812 811 810 810 812 813 816 818 820 820 820 820 820 820 821 822 824 825 827 829 830 831 833 833 834 835 835 836 836 836 836 837 837 836 836 836 835 835 834 834 833 833 832 832 832 832 831 831 830 829 828 827 826 825 824 823 822 820 819 817 816 816 815 814 813 812 812 811 810 810 809 809 808 808 807 807 806 806 806 805 805 805 804 804
810 810 809 809 809 810 812 814 816 817 817 818 818 818 818 819 821 822 822 823 824 826 828 829 830 831 832 833 834 834 835 835 836 836 836 836 836 835 834 834 833 833 832 832 832 831 831 830 830 829 828 827 826 825 824 823 822 821 820 819 817 816 815 814 813 812 811 810 810 809 809 808 807 806 806 805 805 804 803 803 802 802 801 801 801
807 807 807 807 808 809 810 811 813 814 815 816 816 817 817 817 819 820 820 820 821 823 824 826 828 829 830 831 832 833 833 834 834 835 835 835 835 834 834 833 832 832 831 831 831 830 830 829 829 828 828 827 826 825 824 823 823 822 820 819 817 815 814 813 812 812 811 809 808 807 807 806 805 804 804 803 803 802 801 800 800 799 798 798 797
805 806 806 806 806 807 807 808 810 811 812 813 814 815 815 815 816 818 819 819 819 820 822 823 825 826 828 829 829 831 832 833 833 834 834 835 834 833 833 832 832 831 831 830 830 829 829 828 828 828 827 826 826 825 824 823 822 821 819 818 816 814 813 811 810 811 811 809 806 805 804 805 803 802 802 801 800 800 799 798 797 797 796 795 795
804 804 804 805 804 805 805 806 807 808 808 810 811 811 812 813 814 815 816 818 818 818 819 820 822 823 825 826 827 828 830 831 832 832 833 834 833 833 832 831 831 831 830 830 830 829 829 828 827 827 826 825 824 824 824 822 821 820 819 818 817 815 813 812 810 809 809 809 807 804 802 803 803 801 799 799 798 797 796 795 794 794 793 793 792
803 803 803 803 803 803 804 804 805 805 806 806 807 808 809 810 811 812 813 815 815 816 817 818 819 821 822 824 825 826 828 829 830 831 831 832 832 832 831 831 830 830 829 829 829 828 828 827 826 826 825 824 823 822 822 821 820 819 818 817 816 814 813 812 810 808 807 808 807 803 799 799 801 800 797 796 796 795 794 793 791 790 789 789 789
802 802 802 802 802 802 802 802 803 803 803 804 805 806 806 807 809 810 811 812 812 813 814 816 818 819 821 823 824 824 826 828 829 830 830 830 831 831 831 830 829 829 828 828 828 828 828 827 826 824 824 823 822 820 821 820 819 817 816 815 814 813 811 810 809 807 807 807 807 803 796 795 798 797 794 793 793 793 792 791 789 788 786 785 785
801 801 801 800 800 800 800 800 801 801 802 802 803 804 805 805 806 807 808 809 810 812 814 815 816 818 820 822 822 824 825 826 827 828 828 829 829 829 829 828 827 827 827 827 827 827 827 826 825 823 823 822 821 819 819 819 818 816 815 813 812 811 809 808 806 806 805 806 806 803 795 793 796 794 791 791 791 789 789 788 786 786 784 782 781
800 799 800 799 799 799 799 799 800 800 801 802 802 803 803 803 804 806 807 808 809 811 813 815 817 818 819 821 822 823 824 825 826 826 827 827 827 827 827 826 826 825 825 825 825 825 825 825 824 822 821 821 820 818 818 817 816 815 814 812 811 809 807 805 803 803 804 803 804 802 795 792 794 792 787 788 788 786 786 785 784 783 782 780 778
799 798 798 798 798 798 798 798 798 800 800 801 801 802 802 803 804 805 806 808 809 810 813 815 816 817 819 820 821 822 823 823 824 825 825 826 826 826 825 825 824 824 823 824 824 824 824 823 822 821 820 819 818 817 816 815 814 813 812 810 809 807 805 803 801 801 801 801 802 801 795 791 792 790 785 786 785 783 783 783 782 781 780 777 775
798 798 797 797 797 797 797 797 797 798 799 800 801 801 802 803 804 805 806 807 809 811 813 815 816 817 818 819 819 820 821 822 823 823 824 824 824 824 823 823 823 822 822 822 822 822 822 821 820 819 818 817 816 815 814 813 812 811 809 807 806 806 804 802 799 798 799 798 799 799 795 790 790 788 784 783 783 781 780 780 779 778 776 774 772
797 797 796 796 796 795 795 796 796 797 799 799 800 801 803 804 804 805 807 808 810 812 813 814 816 817 817 817 818 819 819 820 821 821 821 822 822 822 821 821 820 820 819 819 819 819 818 818 817 816 815 814 813 812 811 810 809 809 807 804 804 804 802 800 799 797 796 795 796 797 793 789 788 787 783 780 779 778 778 777 776 775 774 771 769
796 796 795 794 794 794 794 794 795 796 797 798 800 801 802 804 805 806 807 809 810 811 812 814 815 816 815 815 816 817 818 819 819 820 820 820 820 820 819 819 818 818 817 817 816 815 815 814 813 813 811 811 809 808 807 806 805 805 804 802 802 802 800 798 798 796 794 792 794 795 792 788 787 786 783 781 777 775 776 776 774 773 773 770 768